{"data":{"norad_id":62846,"intl_designator":"2025-019T","name":"STARLINK-32804","alt_names":[],"object_type":"PAYLOAD","status":"ACTIVE","operator":null,"country":"US","launch_date":"2025-01-27","launch_site_code":"AFETR","launch_vehicle":null,"mission":null,"orbit_class":"UNKNOWN","rcs_meters":null,"size_class":null,"mass_kg":null,"dimensions":null,"purposes":["comms"],"wikipedia_slug":null,"has_3d_model":false,"image_url":null,"decayed_at":null,"tle_current":{"epoch":"2026-09-20T16:00:01.998720Z","epoch_age_seconds":153798,"freshness":"FRESH","line1":"1 62846U 25019T   26263.66668980  .00000747  00000+0  36679-4 0  9993","line2":"2 62846  43.0011  67.8957 0001275 259.4369 318.7380 15.27562148  5828","mean_motion":15.27562148,"eccentricity":0.0001275,"inclination_deg":43.0011,"raan_deg":67.8957,"arg_perigee_deg":259.4369,"mean_anomaly_deg":318.738,"bstar":3.6679e-5,"rev_number":582,"period_min":94.267850370956,"perigee_km":482.22774382761,"apogee_km":483.97735991333,"semimajor_km":6861.2395518705,"source":"CELESTRAK","updated_at":"2026-09-22T09:00:49.674491Z"}}}